Weather History for Crystal River, FL

Change the Weather History Date:

Wednesday, September 5, 2012

  Actual Average (KBKV) Record (KBKV)
Temperature  
Mean Temperature 79 °F -  
Max Temperature 87 °F 87 °F 93 °F (1999)
Min Temperature 71 °F 69 °F 64 °F (1997)
Cooling Degree Days 14    
Growing Degree Days 29 (Base 50)    
Moisture  
Dew Point 72 °F    
Average Humidity 80    
Maximum Humidity 100    
Minimum Humidity 55    
Precipitation  
Precipitation 0.00 in - - ()
Sea Level Pressure  
Sea Level Pressure 29.96 in    
Wind  
Wind Speed 2 mph (SW)    
Max Wind Speed 13 mph    
Max Gust Speed 18 mph    
Visibility 10 miles    
Events      
Averages and records for this station are not official NWS values.
T = Trace of Precipitation, MM = Missing Value Source: NWS Daily Summary

Daily Weather History Graph

Daily Weather History Graph

Search for Another Location

Airport:

Trip Planner

Search our weather history database for the weather conditions in past years. The results will help you decide how hot, cold, wet, or windy it might be!

Date:

Astronomy

Sep. 05, 2012 Rise Set
Actual Time 7:10 AM EDT 7:46 PM EDT
Civil Twilight 6:46 AM EDT 8:10 PM EDT
Nautical Twilight 6:18 AM EDT 8:38 PM EDT
Astronomical Twilight 5:49 AM EDT 9:07 PM EDT
Moon 10:46 PM EDT (9/5) 11:44 AM EDT (9/5)
Length of Visible Light 13h 24m
Length of Day
12h 36m
Waning Gibbous, 76% of the Moon is Illuminated
Sep 5
Waning Gibbous
Sep 8
Last Quarter
Sep 15
New
Sep 22
First Quarter
Sep 29
Full

Hourly Weather History & Observations

Time (EDT) Temp. Heat Index Dew Point Humidity Pressure Visibility Wind Dir Wind Speed Gust Speed Precip Events Conditions
12:15 AM 73.4 °F - 73.4 °F 100% 29.98 in 10.0 mi Calm Calm - N/A   Scattered Clouds
12:35 AM 73.4 °F - 73.4 °F 100% 29.98 in 10.0 mi Calm Calm - N/A   Clear
12:55 AM 73.4 °F - 71.6 °F 94% 29.97 in 10.0 mi Calm Calm - N/A   Clear
1:15 AM 73.4 °F - 71.6 °F 94% 29.97 in 10.0 mi Calm Calm - N/A   Clear
1:35 AM 73.4 °F - 71.6 °F 94% 29.97 in 10.0 mi Calm Calm - N/A   Clear
1:55 AM 73.4 °F - 71.6 °F 94% 29.97 in 10.0 mi Calm Calm - N/A   Clear
2:15 AM 73.4 °F - 71.6 °F 94% 29.96 in 10.0 mi Calm Calm - N/A   Clear
2:35 AM 71.6 °F - 71.6 °F 100% 29.96 in 10.0 mi Calm Calm - N/A   Clear
2:55 AM 71.6 °F - 71.6 °F 100% 29.95 in 10.0 mi Calm Calm - N/A   Clear
3:15 AM 71.6 °F - 71.6 °F 100% 29.95 in 10.0 mi Calm Calm - N/A   Clear
3:35 AM 71.6 °F - 71.6 °F 100% 29.95 in 10.0 mi Calm Calm - N/A   Clear
3:55 AM 71.6 °F - 71.6 °F 100% 29.95 in 10.0 mi Calm Calm - N/A   Clear
4:15 AM 71.6 °F - 71.6 °F 100% 29.95 in 10.0 mi Calm Calm - N/A   Clear
4:35 AM 71.6 °F - 71.6 °F 100% 29.94 in 7.0 mi Calm Calm - N/A   Clear
4:55 AM 71.6 °F - 71.6 °F 100% 29.95 in 7.0 mi Calm Calm - N/A   Clear
5:15 AM 71.6 °F - 71.6 °F 100% 29.94 in 7.0 mi Calm Calm - N/A   Clear
5:35 AM 71.6 °F - 71.6 °F 100% 29.95 in 7.0 mi Calm Calm - N/A   Clear
5:55 AM 71.6 °F - 71.6 °F 100% 29.95 in 10.0 mi Calm Calm - N/A   Clear
6:15 AM 71.6 °F - 69.8 °F 94% 29.95 in 10.0 mi Calm Calm - N/A   Clear
6:35 AM 71.6 °F - 69.8 °F 94% 29.96 in 10.0 mi Calm Calm - N/A   Clear
6:55 AM 71.6 °F - 69.8 °F 94% 29.96 in 10.0 mi Calm Calm - N/A   Clear
7:15 AM 71.6 °F - 69.8 °F 94% 29.96 in 7.0 mi Calm Calm - N/A   Clear
7:35 AM 71.6 °F - 71.6 °F 100% 29.96 in 7.0 mi Calm Calm - N/A   Clear
7:55 AM 73.4 °F - 71.6 °F 94% 29.96 in 10.0 mi Calm Calm - N/A   Clear
8:15 AM 73.4 °F - 71.6 °F 94% 29.96 in 10.0 mi Calm Calm - N/A   Clear
8:35 AM 77.0 °F - 71.6 °F 83% 29.97 in 10.0 mi Calm Calm - N/A   Clear
8:55 AM 78.8 °F - 71.6 °F 78% 29.97 in 10.0 mi SE 3.5 mph - N/A   Clear
9:15 AM 80.6 °F 85.4 °F 73.4 °F 79% 29.97 in 10.0 mi Calm Calm - N/A   Clear
9:35 AM 80.6 °F 85.4 °F 73.4 °F 79% 29.98 in 10.0 mi SSE 4.6 mph - N/A   Clear
9:55 AM 82.4 °F 87.2 °F 71.6 °F 70% 29.98 in 10.0 mi South 4.6 mph - N/A   Clear
10:15 AM 84.2 °F 89.6 °F 71.6 °F 66% 29.98 in 10.0 mi South 3.5 mph - N/A   Clear
10:35 AM 84.2 °F 89.6 °F 71.6 °F 66% 29.99 in 10.0 mi SSW 4.6 mph - N/A   Clear
10:55 AM 86.0 °F 91.8 °F 71.6 °F 62% 29.99 in 10.0 mi SSE 6.9 mph - N/A   Scattered Clouds
11:15 AM 87.8 °F 93.8 °F 71.6 °F 58% 29.99 in 10.0 mi South 4.6 mph - N/A   Mostly Cloudy
11:35 AM 86.0 °F 91.8 °F 71.6 °F 62% 29.99 in 10.0 mi SSW 5.8 mph - N/A   Mostly Cloudy
11:55 AM 86.0 °F 90.4 °F 69.8 °F 58% 29.99 in 10.0 mi SW 5.8 mph - N/A   Scattered Clouds
12:15 PM 86.0 °F 90.4 °F 69.8 °F 58% 29.99 in 10.0 mi SSW 5.8 mph - N/A   Scattered Clouds
12:35 PM 87.8 °F 92.6 °F 69.8 °F 55% 29.98 in 10.0 mi WSW 5.8 mph - N/A   Scattered Clouds
12:55 PM 87.8 °F 92.6 °F 69.8 °F 55% 29.98 in 10.0 mi SW 6.9 mph - N/A   Scattered Clouds
1:15 PM 87.8 °F 92.6 °F 69.8 °F 55% 29.98 in 10.0 mi SW 8.1 mph - N/A   Scattered Clouds
1:35 PM 87.8 °F 92.6 °F 69.8 °F 55% 29.97 in 10.0 mi WSW 10.4 mph - N/A   Scattered Clouds
1:55 PM 87.8 °F 92.6 °F 69.8 °F 55% 29.97 in 10.0 mi WSW 9.2 mph 16.1 mph N/A   Scattered Clouds
2:15 PM 87.8 °F 93.8 °F 71.6 °F 58% 29.97 in 10.0 mi West 11.5 mph 18.4 mph N/A   Clear
2:35 PM 87.8 °F 93.8 °F 71.6 °F 58% 29.96 in 10.0 mi WSW 10.4 mph 16.1 mph N/A   Clear
2:55 PM 87.8 °F 93.8 °F 71.6 °F 58% 29.96 in 10.0 mi WSW 9.2 mph - N/A   Clear
3:15 PM 87.8 °F 92.6 °F 69.8 °F 55% 29.95 in 10.0 mi West 12.7 mph - N/A   Scattered Clouds
3:35 PM 87.8 °F 92.6 °F 69.8 °F 55% 29.94 in 10.0 mi WSW 5.8 mph - N/A   Scattered Clouds
3:55 PM 87.8 °F 92.6 °F 69.8 °F 55% 29.94 in 10.0 mi WSW 9.2 mph - N/A   Scattered Clouds
4:15 PM 87.8 °F 93.8 °F 71.6 °F 58% 29.93 in 10.0 mi West 10.4 mph 16.1 mph N/A   Clear
4:35 PM 87.8 °F 93.8 °F 71.6 °F 58% 29.93 in 10.0 mi WSW 11.5 mph 17.3 mph N/A   Scattered Clouds
4:55 PM 86.0 °F 91.8 °F 71.6 °F 62% 29.93 in 10.0 mi West 12.7 mph - N/A   Scattered Clouds
5:15 PM 86.0 °F 91.8 °F 71.6 °F 62% 29.93 in 10.0 mi WSW 6.9 mph - N/A   Scattered Clouds
5:35 PM 86.0 °F 93.4 °F 73.4 °F 66% 29.93 in 10.0 mi WSW 10.4 mph - N/A   Mostly Cloudy
6:15 PM 84.2 °F 90.9 °F 73.4 °F 70% 29.93 in 10.0 mi WSW 6.9 mph - N/A   Mostly Cloudy
6:35 PM 84.2 °F 90.9 °F 73.4 °F 70% 29.94 in 10.0 mi WSW 5.8 mph - N/A   Mostly Cloudy
6:55 PM 84.2 °F 89.6 °F 71.6 °F 66% 29.94 in 10.0 mi WSW 4.6 mph - N/A   Mostly Cloudy
7:15 PM 82.4 °F 87.2 °F 71.6 °F 70% 29.94 in 10.0 mi WSW 4.6 mph - N/A   Scattered Clouds
7:35 PM 82.4 °F 87.2 °F 71.6 °F 70% 29.95 in 10.0 mi WSW 4.6 mph - N/A   Clear
7:55 PM 80.6 °F 84.6 °F 71.6 °F 74% 29.95 in 10.0 mi Calm Calm - N/A   Clear
8:15 PM 78.8 °F - 71.6 °F 78% 29.95 in 10.0 mi Calm Calm - N/A   Clear
8:35 PM 78.8 °F - 71.6 °F 78% 29.96 in 10.0 mi Calm Calm - N/A   Clear
8:55 PM 77.0 °F - 71.6 °F 83% 29.96 in 10.0 mi Calm Calm - N/A   Clear
9:15 PM 77.0 °F - 71.6 °F 83% 29.96 in 10.0 mi Calm Calm - N/A   Clear
9:35 PM 77.0 °F - 73.4 °F 89% 29.96 in 10.0 mi Calm Calm - N/A   Clear
9:55 PM 77.0 °F - 71.6 °F 83% 29.96 in 10.0 mi Calm Calm - N/A   Clear
10:15 PM 77.0 °F - 73.4 °F 89% 29.96 in 10.0 mi Calm Calm - N/A   Mostly Cloudy
10:35 PM 75.2 °F - 73.4 °F 94% 29.97 in 10.0 mi Calm Calm - N/A   Scattered Clouds
10:55 PM 75.2 °F - 73.4 °F 94% 29.97 in 10.0 mi Calm Calm - N/A   Clear
11:15 PM 73.4 °F - 73.4 °F 100% 29.96 in 10.0 mi Calm Calm - N/A   Clear
11:35 PM 73.4 °F - 73.4 °F 100% 29.96 in 10.0 mi Calm Calm - N/A   Clear
11:55 PM 73.4 °F - 73.4 °F 100% 29.96 in 10.0 mi Calm Calm - N/A   Clear